[[{"header":{"parameterUnit":"m.s-1","parameterCategory":1,"la1":30.2991,"la2":30.254,"lo1":-89.0895,"lo2":-89.0444,"dy":0.0017,"dx":0.0017,"nx":28,"ny":28,"refTime":"2023-09-02T21:00:00:Z","depth":0,"parameterNumber":2,"parameterNumberName":"U-component_of_WINDS"},"data":[0,0,0,0,0,0,0,0,0,0,0,0,0,0,0,0,0,0,0,0,0,0,0,0,0,0,0,0,0,0,0,0,0,0,0,0,0,0,0,0,0,0,0,0,0,0,0,0,0,0,0,0,0,0,0,0,0,0,-2.9983,-2.9985,0,-3.0158,-3.016,-3.0162,-3.0199,-3.0198,-3.0196,-3.0195,-3.0381,-3.0387,-3.0393,0,0,0,0,0,0,0,0,0,0,0,0,0,-2.9686,-2.9692,-2.9983,-2.9985,-2.9987,-3.0157,-3.016,-3.0162,-3.0199,-3.0198,-3.0196,-3.0195,-3.0379,-3.0386,-3.0394,0,0,0,0,0,0,0,0,0,0,0,0,0,-2.9834,-2.9693,-2.9982,-3.0026,-3.0032,-3.0157,-3.016,-3.0163,-3.02,-3.0198,-3.0196,-3.0194,-3.0377,-3.0386,-3.0395,-3.0491,0,0,-3.0423,-3.0427,0,0,0,0,0,0,0,0,-2.9825,-2.9845,-3.0017,-3.0023,-3.003,-3.0154,-3.0123,-3.0273,-3.02,-3.0136,-3.0195,-3.0193,-3.0308,-3.0322,-3.036,-3.0499,-3.0507,-3.0424,-3.0429,-3.0433,-3.0436,0,0,0,0,0,0,0,-2.9815,-2.9837,-3.0052,-3.002,-3.0028,-3.0039,-3.0057,-3.0152,-3.0231,-3.0142,-3.0145,-3.0164,-3.0311,-3.0351,-3.0364,-3.051,-3.0423,-3.0432,-3.0437,-3.0441,-3.0736,-3.0738,0,0,0,0,0,0,-2.9796,-2.9828,-3.0047,-3.0057,-2.992,-3.0045,-3.0066,-3.0117,-3.023,-3.0245,-3.0166,-3.0166,-3.0336,-3.0354,-3.0371,-3.0489,-3.0433,-3.0442,-3.0447,-3.0733,-3.0736,-3.0738,0,0,0,0,0,0,-2.979,-2.9815,-3.004,-2.9944,-2.9973,-3.0053,-3.0109,-3.0121,-3.0161,-3.0248,-3.0263,-3.0192,-3.0335,-3.0358,-3.046,-3.0496,-3.0446,-3.0454,-3.0731,-3.0734,-3.0737,-3.0726,0,0,0,0,0,0,-2.9781,-2.9813,-2.9849,-2.9944,-2.9978,-3.0124,-3.0111,-3.0126,-3.0176,-3.0177,-3.0277,-3.0291,-3.0335,-3.0446,-3.0469,-3.0508,-3.0462,-3.0728,-3.0732,-3.0736,-3.0724,-3.0729,-3.0733,0,0,0,0,0,-2.977,-2.9841,-2.9851,-2.9877,-3.0025,-3.0126,-3.0145,-3.0192,-3.0179,-3.0216,-3.0272,-3.0288,-3.0488,-3.0456,-3.0482,-3.0524,-3.0726,-3.0731,-3.0736,-3.0722,-3.0728,-3.0733,0,0,0,0,0,0,-2.9751,-2.9854,-2.9866,-2.9969,-3.0038,-3.0132,-3.018,-3.0198,-3.0274,-3.0272,-3.033,-3.0352,-3.0449,-3.0498,-3.0459,-3.0622,-3.0607,-3.0617,-3.0587,-3.0593,-3.0598,-3.0584,-3.0469,0,0,0,0,0,-2.9758,-2.9829,-2.9917,-3.0,-3.0033,-3.0101,-3.0147,-3.0177,-3.0251,-3.0281,-3.0345,-3.0418,-3.0497,-3.0549,-3.0627,-3.0731,-3.0753,-3.0774,-3.0778,-3.0782,-3.079,-3.0847,-3.0857,-3.0755,-3.0755,-3.0755,0,0,-2.9775,-2.984,-2.9882,-2.9997,-3.0054,-3.0127,-3.0125,-3.0204,-3.0259,-3.0294,-3.0392,-3.0441,-3.0527,-3.063,-3.0679,-3.0673,-3.0823,-3.0788,-3.079,-3.0797,-3.0853,-3.0863,-3.0871,-3.0759,-3.0758,-3.0758,0,0,-2.9841,-2.9899,-2.9972,-3.0028,-3.0113,-3.0157,-3.0175,-3.0266,-3.0299,-3.0398,-3.0425,-3.0493,-3.0629,-3.0688,-3.0736,-3.0823,-3.084,-3.0848,-3.0872,-3.0927,-3.0935,-3.0942,-3.0971,-3.0981,-3.0856,-3.0856,-3.0856,0,-2.9852,-2.9962,-3.0009,-3.0085,-3.0134,-3.0166,-3.0242,-3.0295,-3.0402,-3.0436,-3.0428,-3.0597,-3.0658,-3.0774,-3.0794,-3.0833,-3.0855,-3.0836,-3.0929,-3.0937,-3.0945,-3.0973,-3.0985,-3.0856,-3.0856,-3.0856,-3.0856,0,-2.9969,-3.0045,-3.0095,-3.0193,-3.0249,-3.0325,-3.0384,-3.0435,-3.046,-3.0505,-3.0606,-3.0679,-3.0771,-3.0801,-3.0829,-3.0921,-3.0915,-3.0918,-3.0903,-3.0954,-3.0981,-3.0993,-3.0856,-3.0856,-3.0856,-3.0856,0,0,-3.0029,-3.015,-3.0167,-3.0211,-3.0307,-3.0367,-3.0445,-3.0532,-3.0574,-3.0647,-3.0713,-3.0826,-3.0828,-3.0883,-3.0917,-3.0965,-3.1027,-3.0962,-3.0965,-3.097,-3.1132,-3.1127,-3.1139,-3.1039,-3.1042,-3.1044,-3.1124,0,-3.0105,-3.0241,-3.0284,-3.0398,-3.0468,-3.0499,-3.0566,-3.0632,-3.0677,-3.0744,-3.0795,-3.0873,-3.0871,-3.0904,-3.0953,-3.1009,-3.106,-3.1004,-3.1102,-3.1104,-3.1076,-3.1154,-3.115,-3.1222,-3.1135,-3.1137,-3.1138,0,-3.0213,-3.0283,-3.0402,-3.0486,-3.0518,-3.0577,-3.0659,-3.0723,-3.0799,-3.0828,-3.0887,-3.0917,-3.1,-3.0981,-3.1096,-3.1056,-3.11,-3.1133,-3.1137,-3.1146,-3.1123,-3.1164,-3.1246,-3.1256,-3.1156,-3.1155,-3.1154,0,-3.0241,-3.0367,-3.0453,-3.0491,-3.0592,-3.0632,-3.0676,-3.075,-3.0799,-3.0873,-3.0905,-3.0988,-3.1033,-3.1098,-3.1149,-3.1131,-3.1259,-3.1245,-3.1285,-3.1284,-3.131,-3.1307,-3.1398,-3.1341,-3.134,-3.134,-3.134,0,-3.0321,-3.0392,-3.0467,-3.052,-3.0601,-3.0651,-3.0731,-3.0777,-3.0842,-3.0906,-3.094,-3.1,-3.1065,-3.1133,-3.1175,-3.1263,-3.1284,-3.131,-3.132,-3.1306,-3.1302,-3.1333,-3.1329,-3.1343,-3.1343,-3.1342,-3.1341,0,-3.0366,-3.0419,-3.0515,-3.0601,-3.0625,-3.068,-3.0755,-3.0809,-3.0854,-3.0934,-3.0956,-3.1028,-3.111,-3.1168,-3.1275,-3.1303,-3.1397,-3.1407,-3.1369,-3.1374,-3.141,-3.1405,-3.1523,-3.1541,-3.1473,-3.1473,-3.1474,0,-3.0412,-3.0467,-3.0558,-3.0601,-3.0645,-3.0715,-3.0764,-3.0817,-3.0867,-3.0956,-3.0999,-3.1083,-3.1152,-3.1282,-3.1345,-3.1427,-3.1439,-3.1475,-3.1452,-3.1435,-3.1437,-3.1432,-3.1437,-3.1478,-3.1478,-3.1478,-3.1479,0,-3.0488,-3.0511,-3.0579,-3.0656,-3.0712,-3.0776,-3.0841,-3.0875,-3.0939,-3.0994,-3.1076,-3.113,-3.1237,-3.132,-3.1407,-3.1456,-3.1478,-3.1485,-3.1499,-3.1484,-3.1459,-3.1471,-3.1377,-3.1482,-3.1482,-3.1482,-3.1481,-3.1481,-3.0534,-3.0583,-3.0654,-3.0728,-3.0781,-3.084,-3.0894,-3.0944,-3.1013,-3.1102,-3.1129,-3.1215,-3.1289,-3.1408,-3.1457,-3.1526,-3.1524,-3.1544,-3.1548,-3.1552,-3.155,-3.1449,-3.1542,-3.1542,-3.1542,-3.1542,-3.1542,0,-3.061,-3.0656,-3.0724,-3.0811,-3.0869,-3.0883,-3.0954,-3.1003,-3.1076,-3.1142,-3.1209,-3.1303,-3.1383,-3.1452,-3.1535,-3.1576,-3.1589,-3.1596,-3.1593,-3.1603,-3.1548,-3.1527,-3.1585,-3.1585,-3.1585,-3.1585,-3.1585,-3.1585,-3.0656,-3.0739,-3.077,-3.0879,-3.0927,-3.1007,-3.1047,-3.1102,-3.1154,-3.1256,-3.1322,-3.1365,-3.1432,-3.152,-3.1594,-3.1612,-3.1641,-3.1645,-3.1666,-3.1613,-3.1608,-3.1603,-3.1583,-3.1652,-3.1652,-3.1715,-3.1716,-3.1716]},{"header":{"parameterUnit":"m.s-1","parameterCategory":1,"la1":30.2991,"la2":30.254,"lo1":-89.0895,"lo2":-89.0444,"dy":0.0017,"dx":0.0017,"nx":28,"ny":28,"refTime":"2023-09-02T21:00:00:Z","depth":0,"parameterNumber":3,"parameterNumberName":"V-component_of_WINDS"},"data":[0,0,0,0,0,0,0,0,0,0,0,0,0,0,0,0,0,0,0,0,0,0,0,0,0,0,0,0,0,0,0,0,0,0,0,0,0,0,0,0,0,0,0,0,0,0,0,0,0,0,0,0,0,0,0,0,0,0,2.0404,2.0405,0,2.0514,2.0515,2.0516,2.0492,2.0489,2.0487,2.0485,2.0604,2.0609,2.0614,0,0,0,0,0,0,0,0,0,0,0,0,0,2.0177,2.0181,2.0404,2.0405,2.0406,2.0514,2.0515,2.0517,2.0492,2.0489,2.0487,2.0484,2.0602,2.0608,2.0614,0,0,0,0,0,0,0,0,0,0,0,0,0,2.028,2.0183,2.0403,2.0407,2.0408,2.0513,2.0515,2.0517,2.0492,2.0489,2.0486,2.0483,2.06,2.0608,2.0615,2.0726,0,0,2.0639,2.0642,0,0,0,0,0,0,0,0,2.0275,2.0289,2.0405,2.0407,2.0409,2.0486,2.0479,2.0587,2.0493,2.0461,2.0485,2.0482,2.0567,2.0578,2.0605,2.0731,2.0736,2.0639,2.0644,2.0647,2.0649,0,0,0,0,0,0,0,2.0267,2.0284,2.0447,2.0407,2.0409,2.0405,2.0416,2.0499,2.0531,2.0463,2.0462,2.0475,2.0568,2.0598,2.0608,2.0738,2.0639,2.0646,2.0651,2.0654,2.0961,2.0965,0,0,0,0,0,0,2.0258,2.0278,2.0444,2.0451,2.0332,2.0411,2.0424,2.0464,2.053,2.0536,2.0477,2.0473,2.0586,2.0599,2.0612,2.0746,2.0647,2.0654,2.0659,2.0958,2.0962,2.0966,0,0,0,0,0,0,2.0253,2.0273,2.044,2.0364,2.0385,2.0418,2.0464,2.0468,2.0498,2.054,2.0546,2.0502,2.0584,2.0601,2.0697,2.0749,2.0658,2.0665,2.0953,2.0959,2.0964,2.1013,0,0,0,0,0,0,2.0247,2.0271,2.0312,2.0365,2.0389,2.0521,2.0467,2.0472,2.0511,2.0506,2.0565,2.0572,2.0583,2.0686,2.0705,2.0758,2.0671,2.0949,2.0956,2.0962,2.1007,2.102,2.103,0,0,0,0,0,2.0239,2.0323,2.0314,2.0335,2.044,2.0524,2.0538,2.0548,2.0515,2.0557,2.0584,2.057,2.0741,2.0696,2.0717,2.0774,2.0946,2.0954,2.0962,2.1002,2.1017,2.103,0,0,0,0,0,0,2.0277,2.033,2.0321,2.0424,2.047,2.052,2.0573,2.0564,2.0621,2.0615,2.0627,2.064,2.0738,2.0766,2.0715,2.0885,2.0839,2.0851,2.0862,2.0877,2.0889,2.0879,2.0677,0,0,0,0,0,2.0297,2.0359,2.0402,2.049,2.0513,2.0539,2.0576,2.058,2.0628,2.0648,2.0682,2.0731,2.0796,2.0838,2.09,2.1012,2.1025,2.1061,2.1073,2.1082,2.1093,2.1155,2.1171,2.0992,2.0992,2.0992,0,0,2.0339,2.0376,2.0415,2.0498,2.0534,2.0599,2.0555,2.0626,2.0675,2.0659,2.0751,2.0778,2.0834,2.0938,2.0986,2.0964,2.1145,2.1092,2.11,2.1105,2.1165,2.1181,2.1197,2.0998,2.0997,2.0996,0,0,2.045,2.0484,2.056,2.0596,2.065,2.0668,2.0686,2.0738,2.0755,2.0847,2.0836,2.0897,2.1008,2.1048,2.1083,2.1211,2.12,2.1231,2.1291,2.1351,2.1365,2.1378,2.1424,2.144,2.1242,2.1242,2.1242,0,2.0496,2.0592,2.0601,2.0672,2.071,2.0697,2.0775,2.0811,2.0884,2.0911,2.0885,2.1025,2.1062,2.1175,2.1206,2.1235,2.1258,2.1223,2.1362,2.1375,2.1387,2.1431,2.1448,2.1245,2.1245,2.1244,2.1244,0,2.0647,2.0714,2.0769,2.0837,2.0882,2.0956,2.0978,2.1022,2.1023,2.1043,2.1139,2.1182,2.1253,2.1281,2.1283,2.1396,2.138,2.1359,2.1313,2.1407,2.1448,2.1465,2.125,2.1249,2.1248,2.1247,0,0,2.0782,2.0855,2.0875,2.0906,2.0965,2.1018,2.1094,2.1161,2.1199,2.1251,2.1314,2.141,2.139,2.143,2.1437,2.149,2.1588,2.1462,2.1464,2.1484,2.1716,2.1731,2.175,2.1582,2.1585,2.1588,2.1711,0,2.0897,2.1027,2.1038,2.1156,2.1218,2.1208,2.1274,2.1319,2.1341,2.1399,2.1424,2.1491,2.146,2.1484,2.1536,2.1565,2.1635,2.1557,2.1643,2.1646,2.1628,2.1772,2.1788,2.1902,2.1727,2.173,2.1732,0,2.1049,2.1102,2.1226,2.1277,2.1304,2.1363,2.1426,2.1481,2.1533,2.1545,2.159,2.159,2.167,2.1622,2.1733,2.168,2.1716,2.1736,2.1741,2.1749,2.1694,2.1783,2.1938,2.1955,2.1758,2.1756,2.1754,0,2.1134,2.1238,2.1326,2.1353,2.1415,2.1457,2.1485,2.1533,2.1573,2.163,2.1656,2.1722,2.1758,2.1811,2.1829,2.1793,2.194,2.1893,2.1954,2.1953,2.1984,2.1981,2.2147,2.2009,2.2009,2.2008,2.2008,0,2.1261,2.1337,2.1365,2.1418,2.1504,2.1517,2.1602,2.1628,2.1672,2.1732,2.1728,2.1785,2.1807,2.1869,2.1885,2.1974,2.1991,2.2004,2.2008,2.2004,2.2002,2.2027,2.202,2.2013,2.2012,2.2011,2.201,0,2.1371,2.1392,2.1487,2.1538,2.1553,2.1613,2.1658,2.1711,2.1733,2.1809,2.1828,2.1863,2.1935,2.1959,2.2047,2.2058,2.2162,2.2159,2.2144,2.2144,2.2203,2.2197,2.2389,2.2415,2.2261,2.2262,2.2264,0,2.1449,2.1507,2.1565,2.1604,2.1633,2.1696,2.1737,2.1753,2.1796,2.186,2.1906,2.1977,2.2034,2.2151,2.2185,2.2253,2.2251,2.2314,2.2262,2.2257,2.2252,2.2248,2.2254,2.2324,2.2325,2.2327,2.2328,0,2.1587,2.1595,2.1653,2.1715,2.1764,2.1814,2.1863,2.1896,2.1919,2.1968,2.2041,2.2085,2.2175,2.2246,2.2316,2.2347,2.2343,2.2344,2.2362,2.2358,2.2347,2.2353,2.217,2.2339,2.2338,2.2337,2.2337,2.2336,2.1683,2.1734,2.1782,2.1848,2.1886,2.1932,2.1984,2.2012,2.2072,2.2144,2.2151,2.223,2.2282,2.2375,2.241,2.2473,2.2456,2.2481,2.2488,2.2493,2.2498,2.2337,2.2486,2.2486,2.2486,2.2486,2.2485,0,2.182,2.1851,2.191,2.1978,2.203,2.2019,2.2073,2.2118,2.2186,2.2234,2.2291,2.2376,2.2445,2.2485,2.2556,2.2599,2.2599,2.2617,2.2613,2.2621,2.2509,2.2487,2.2616,2.2616,2.2616,2.2616,2.2616,2.2616,2.1897,2.1983,2.1997,2.2103,2.2134,2.2209,2.2241,2.2284,2.2323,2.2416,2.2473,2.2498,2.2545,2.2618,2.2682,2.2693,2.2719,2.2739,2.2748,2.2642,2.2629,2.2616,2.2595,2.2745,2.2745,2.2854,2.2855,2.2856]}]]